• MPC Preparation (Info)

  • MPEC 2023-R235 : 2023 RZ10

    The following Minor Planet Electronic Circular may be linked-to from your own Web pages, but must not otherwise be redistributed electronically.

    A form allowing access to any MPEC is at the bottom of this page.


    Read MPEC 2023-R234 Read MPEC 2023-R236


    M.P.E.C. 2023-R235                           Issued 2023 September 15, 22:44 UT
    
         The Minor Planet Electronic Circulars contain information on unusual
             minor planets, routine data on comets and natural satellites,
             and occasional editorial announcements.  They are published
        on behalf of Division F of the International Astronomical Union by the
              Minor Planet Center, Smithsonian Astrophysical Observatory,
                              Cambridge, MA 02138, U.S.A.
    			  
                 Prepared using the Tamkin Foundation Computer Network
    
                                  MPC@CFA.HARVARD.EDU
                URL https://www.minorplanetcenter.net/    ISSN 1523-6714
    
                                    2023 RZ10                                
    
    
    Observations:
         K23R10Z  C2023 09 04.54871723 40 55.628+17 00 57.49         22.65GVER235F51
         K23R10Z  C2023 09 04.55971023 40 55.093+17 00 50.65         21.91GVER235F51
         K23R10Z  C2023 09 04.57070723 40 54.573+17 00 43.79         21.87GVER235F51
         K23R10Z  C2023 09 04.58173623 40 54.026+17 00 36.92         22.66GVER235F51
         K23R10Z  C2023 09 05.51900423 40 12.183+16 50 48.92         22.26GVER235F51
         K23R10Z  C2023 09 05.52625023 40 11.862+16 50 44.14         22.64GVER235F52
         K23R10Z  C2023 09 05.52998523 40 11.677+16 50 41.88         22.26GVER235F51
         K23R10Z  C2023 09 05.54104323 40 11.121+16 50 34.89         21.91GVER235F51
         K23R10Z  C2023 09 05.54793523 40 10.771+16 50 30.07         21.85GVER235F52
         K23R10Z  C2023 09 05.55875523 40 10.259+16 50 22.94         22.48GVER235F52
         K23R10Z  C2023 09 10.31764823 36 15.970+15 52 14.68         20.50GVER235F52
         K23R10Z  C2023 09 10.32844123 36 15.363+15 52 05.98         21.14GVER235F52
         K23R10Z  C2023 09 10.33923223 36 14.747+15 51 56.91         21.56GVER235F52
         K23R10Z  C2023 09 10.48845123 36 06.274+15 49 54.65         21.63GVER235F51
         K23R10Z  C2023 09 10.48909023 36 06.248+15 49 54.03         21.86GVER235F51
         K23R10Z* C2023 09 11.33588123 35 21.308+15 37 58.86         22.05wXER235F51
         K23R10Z  C2023 09 11.34746123 35 20.664+15 37 49.11         22.01wXER235F51
         K23R10Z  C2023 09 11.35904523 35 19.985+15 37 39.16         21.95wXER235F51
         K23R10Z  C2023 09 11.37066623 35 19.316+15 37 29.32         21.95wXER235F51
         K23R10Z  C2023 09 11.47672123 35 13.141+15 35 57.90         21.75GVER235F52
         K23R10Z  C2023 09 11.47735623 35 13.105+15 35 57.40         22.34GVER235F52
         K23R10Z 1C2023 09 11.99898 23 34 44.58 +15 28 16.2          21.5 VXER235033
         K23R10Z 1C2023 09 12.00256 23 34 44.37 +15 28 12.9          21.5 VXER235033
         K23R10Z 1C2023 09 12.00614 23 34 44.16 +15 28 09.8          21.3 VXER235033
         K23R10Z KC2023 09 13.18977223 33 38.27 +15 10 17.5          21.6 VuER235H21
         K23R10Z KC2023 09 13.19732823 33 37.81 +15 10 10.4          22.0 VuER235H21
         K23R10Z KC2023 09 13.20254823 33 37.51 +15 10 05.3          22.0 VuER235H21
         K23R10Z  C2023 09 14.34662023 32 32.286+14 51 57.81         21.86wXER235F52
         K23R10Z  C2023 09 14.35820123 32 31.560+14 51 46.80         22.25wXER235F52
         K23R10Z  C2023 09 14.36965623 32 30.884+14 51 35.15         21.78wXER235F52
         K23R10Z  C2023 09 14.38125623 32 30.154+14 51 24.45         21.93wXER235F52
         K23R10Z 1C2023 09 15.03125 23 31 51.89 +14 40 37.5          21.2 VXER235033
         K23R10Z 1C2023 09 15.03483 23 31 51.68 +14 40 33.9          21.3 VXER235033
         K23R10Z 1C2023 09 15.03842 23 31 51.46 +14 40 30.2          21.4 VXER235033
         K23R10Z 1C2023 09 15.04217 23 31 51.23 +14 40 26.3          21.6 VXER235033
         K23R10Z 1C2023 09 15.88789 23 31 01.76 +14 26 06.4          21.7 VXER235033
         K23R10Z 1C2023 09 15.89147 23 31 01.53 +14 26 02.5          21.6 VXER235033
         K23R10Z 1C2023 09 15.89506 23 31 01.31 +14 25 58.9          21.7 VXER235033
    
    Observer details:
    033 Karl Schwarzschild Observatory, Tautenburg.  Observers S. Melnikov, C.
        Hoegner, F. Ludwig, M. Hartmann, B. Stecklum.  Measurer B. Stecklum.
        1.34-m f/3 Schmidt + CCD.
    F51 Pan-STARRS 1, Haleakala.  Observers J. Bulger, K. Chambers, T. Dukes, T.
        Lowe, P. Minguez, A. Schultz, I. Smith.  Measurers S. Chastel, J.
        Fairlamb, M. Huber, Y. Ramanjooloo, R. Wainscoat, R. Weryk, K. Chambers,
        T. de Boer, J. Bulger, H. Gao, C.-C. Lin, T. Lowe, E. Magnier, P. Minguez,
        A. Schultz, I. Smith.  1.8-m Ritchey-Chretien + CCD.
    F52 Pan-STARRS 2, Haleakala.  Observers J. Bulger, K. Chambers, T. Lowe, P.
        Minguez, A. Schultz, I. Smith, T. Dukes.  Measurers S. Chastel, J.
        Fairlamb, M. Huber, Y. Ramanjooloo, R. Wainscoat, R. Weryk, K. Chambers,
        T. de Boer, J. Bulger, H. Gao, C.-C. Lin, T. Lowe, E. Magnier, P. Minguez,
        A. Schultz, I. Smith.  1.8-m Ritchey-Chretien + CCD.
    H21 Astronomical Research Observatory, Westfield.  Observer R. Holmes.
        Measurers T. Linder, R. Holmes, L. Horn.  0.76-m f/3.0 astrograph + CCD.
    
    Orbital elements:
    2023 RZ10                                                Earth MOID = 0.3237 AU
    Epoch 2023 Sept. 13.0 TT = JDT 2460200.5                Veres                   
    M 318.75106              (2000.0)            P               Q                  
    n   0.28287656     Peri.  255.37631     -0.02988446     -0.99467233             
    a   2.2982895      Node   197.27222     +0.99622719     -0.02159395             
    e   0.5052561      Incl.   19.40773     +0.08147579     -0.10080006             
    P   3.48           H   20.11          G   0.15           U   9                  
    Residuals in seconds of arc
    230904 F51  0.3+  0.1+    230910 F51  0.1-  0.1+    230913 H21  0.6-  0.2+
    230904 F51  0.1+  0.1+    230910 F51  0.0   0.0     230914 F52  0.3+  0.2-
    230904 F51  0.0   0.0     230911 F51  0.2-  0.1-    230914 F52  0.1+  0.0
    230904 F51  0.4-  0.0     230911 F51  0.1+  0.0     230914 F52  0.5+  0.5-
    230905 F51  0.3-  0.0     230911 F51  0.0   0.1-    230914 F52  0.3+  0.0
    230905 F52  0.2+  0.1-    230911 F51  0.0   0.0     230915 033  0.0   0.2+
    230905 F51  0.2+  0.1+    230911 F52  0.1+  0.1-    230915 033  0.1+  0.2+
    230905 F51  0.0   0.3+    230911 F52  0.1+  0.0     230915 033  0.1+  0.1+
    230905 F52  0.2-  0.0     230911 033  0.0   0.1+    230915 033  0.1+  0.0
    230905 F52  0.0   0.1-    230912 033  0.1-  0.1-    230915 033  0.3+  0.1+
    230910 F52  0.2+  0.0     230912 033  0.1-  0.0     230915 033  0.2+  0.1-
    230910 F52  0.1+  0.1+    230913 H21  0.7-  0.6+    230915 033  0.3+  0.1-
    230910 F52  0.1-  0.3-    230913 H21  0.8-  0.5+
    
    Ephemeris:
    2023 RZ10                a,e,i = 2.30, 0.51, 19                  q = 1.1371
    Date    TT    R. A. (2000) Decl.     Delta      r    Elong.  Phase     V
    2023 08 16    23 49 34.8 +18 40 42   1.2055  2.0455   134.3    20.8    23.1
    ...
    2023 08 31    23 43 58.4 +17 41 18   1.0169  1.9499   148.4    15.7    22.5
    ...
    2023 09 08    23 38 14.3 +16 22 20   0.9324  1.8981   156.1    12.4    22.1
    ...
    2023 09 14    23 32 52.0 +14 57 36   0.8778  1.8588   161.2    10.0    21.8
    2023 09 15    23 31 53.9 +14 41 15   0.8694  1.8523   162.0     9.7    21.8
    2023 09 16    23 30 54.9 +14 24 17   0.8613  1.8457   162.6     9.4    21.7
    ...
    2023 09 22    23 24 45.1 +12 29 29   0.8176  1.8062   165.0     8.3    21.5
    ...
    2023 09 30    23 16 20.7 +09 24 49   0.7729  1.7532   162.1    10.1    21.4
    ...
    2023 10 15    23 03 12.2 +02 36 11   0.7295  1.6536   146.1    19.7    21.5
    
    M. P. C. Staff               (C) Copyright 2023 MPC           M.P.E.C. 2023-R235
    


    Read MPEC 2023-R234 Read MPEC 2023-R236


    MPEC number:

    Enter an MPEC number in one of the following forms:

    • 1997-B01 (the full form)
    • J97B01 (the packed version of the full form)
    • B01 (the abbreviated form)